www.pogodaiklimat.ru

Погода и климат >> Архив погоды >> Украина >> Великий Березный


ПОГОДА в Великом Березном

  • Прогноз погоды в Великом Березном
  • Монитор погоды в Великом Березном

АРХИВ ПОГОДЫ в Великом Березном

Время (UTC), дата Ветер
(напр.,м/с)
 
Видим.   Явления Облачность Т
(С)
Тd
(С)
f
(%)
Тe
(С)
Тes
(С)
Комфортность P
(гПа)
Po
(гПа)
Тmin
(С)
Tmax
(С)
R
(мм)
R24
(мм)
S
(см)
06 15.08 С 2 10 км 3/0 2000 м
[Ac trans]
+14.7 +9.9 73 +14 +18 1016.5 993.2 +12.8 0.0
09 15.08 СВ 2 10 км 9/3 1000 м
[Cu med, cong Ci fib]
+19.7 +9.8 53 +21 +29 комфорт 1015.6 992.7
12 15.08 СВ 4 10 км 9/6 1000 м
[Cu med, cong Ac trans]
+20.2 +9.8 51 +22 +24 комфорт 1015.3 992.5
15 15.08 СВ 2 10 км 9/0 2000 м
[Ac und]
+19.8 +9.7 52 +22 +23 комфорт 1015.5 992.7
18 15.08 СВ 2 10 км 8/0 2000 м
[Ac und]
+18.0 +10.5 62 +19 +19 1015.3 992.3 +21.5
21 15.08 СВ 2 10 км ясно +14.0 +11.0 82 +13 +13 1016.3 993.0
00 16.08 штиль 0 10 км ясно +10.2 +9.2 94 +9 +9 1016.6 993.0
03 16.08 штиль 0 10 км ясно +7.7 +7.0 95 +7 +7 1017.1 993.2
06 16.08 штиль 0 10 км 3/0
[Ci fib]
+11.6 +9.2 85 +11 +16 1016.9 993.4 +7.1
09 16.08 ЮЗ 2 10 км 6/4 1000 м
[Cu med, cong Ci fib]
+21.1 +12.0 56 +23 +30 комфорт 1015.5 992.8
12 16.08 З 2 10 км 8/8 1000 м
[Cu med, cong]
+23.4 +10.9 45 +26 +28 жарко 1014.6 992.1
18 16.08 С 2 10 км 3/0 2000 м
[Ac trans]
+18.2 +12.5 69 +19 +19 1014.9 991.9 +24.6
21 16.08 штиль 0 10 км ясно +11.8 +9.8 88 +11 +11 1017.2 993.7
00 17.08 штиль 0 10 км ясно +9.8 +9.0 95 +9 +9 1017.9 994.2
03 17.08 штиль 0 10 км ясно +8.8 +8.0 95 +8 +8 1018.1 994.3
06 17.08 штиль 0 10 км 3/0 2000 м
[Ac trans]
+12.7 +10.0 84 +12 +16 1018.3 994.8 +8.3
09 17.08 Ю 2 10 км 6/0 2000 м
[Ac und]
+20.4 +11.0 55 +23 +30 комфорт 1017.2 994.4
12 17.08 В 2 10 км 3/3 1000 м
[Cu med, cong]
+20.4 +11.0 55 +23 +32 комфорт 1015.6 992.8
18 17.08 штиль 0 10 км 9/0
[Ci fib]
+19.2 +14.4 74 +20 +20 1014.2 991.3 +25.4
21 17.08 штиль 0 10 км ясно +13.8 +12.3 91 +13 +13 1016.3 993.0
00 18.08 штиль 0 10 км 6/6 1000 м
[Sc]
+12.0 +10.9 93 +11 +11 1016.6 993.1
03 18.08 штиль 0 10 км 4/0 2000 м
[Ac trans]
+10.2 +9.4 95 +9 +9 1016.6 993.0
06 18.08 штиль 0 10 км 9/9 1000 м
[Sc]
+13.8 +12.0 89 +13 +14 1016.9 993.6 +10.1
09 18.08 Ю 2 10 км 9/0 2000 м
[Ac und]
+20.2 +14.0 68 +23 +28 комфорт 1016.1 993.3
12 18.08 Ю 2 10 км 9/9 1000 м
[Cu Sc]
+23.8 +14.8 57 +27 +28 жарко 1015.5 993.0
15 18.08 ЮВ 2 10 км 9/9 1000 м
[Sc]
+23.7 +14.6 57 +26 +27 жарко 1015.1 992.6
18 18.08 штиль 0 10 км 3/3 1000 м
[Sc]
+20.0 +16.5 80 +22 +22 комфорт 1015.7 992.9 +24.8
21 18.08 штиль 0 10 км ясно +14.8 +13.7 93 +14 +14 1016.7 993.4
00 19.08 штиль 0 10 км ясно +13.4 +12.6 95 +13 +13 1017.5 994.1
03 19.08 штиль 0 10 км ясно +11.6 +10.9 95 +11 +11 1018.5 994.9
06 19.08 С 2 10 км ясно +16.6 +13.7 83 +17 +20 1018.7 995.5 +11.2
09 19.08 Ю 2 10 км 3/0 2000 м
[Ac trans]
+25.6 +14.6 51 +28 +38 жарко 1017.8 995.3
12 19.08 ЮВ 2 20 км ясно +29.0 +14.5 41 +31 +43 жарко 1017.2 995.0
15 19.08 Ю 2 20 км ясно +29.6 +14.5 40 +32 +35 душно 1017.0 994.9
18 19.08 штиль 0 10 км 3/0 2000 м
[Ac trans]
+22.6 +17.8 74 +28 +28 душно 1017.5 994.8 +30.0
21 19.08 штиль 0 10 км ясно +16.7 +15.5 93 +17 +17 1019.4 996.2
00 20.08 штиль 0 10 км ясно +14.0 +13.2 95 +14 +14 1020.0 996.6
03 20.08 штиль 0 10 км ясно +12.6 +11.9 95 +12 +12 1020.7 997.2
06 20.08 штиль 0 10 км 4/0 2000 м
[Ac trans]
+17.4 +15.5 89 +17 +21 1021.0 997.8 +12.2
12 20.08 ЮВ 2 10 км 9/3 1000 м
[Cu med, cong Ci fib]
+30.6 +15.9 41 +33 +41 душно 1019.1 997.0
18 20.08 штиль 0 10 км 6/0
[Ci fib]
+23.2 +18.7 76 +29 +29 душно 1019.4 996.7 +31.6
00 21.08 штиль 0 10 км ясно +16.0 +15.1 94 +16 +16 1019.9 996.7
06 21.08 штиль 0 10 км ясно +18.1 +16.8 92 +18 +23 1020.6 997.5 +14.1
12 21.08 С 2 10 км 4/4 1000 м
[Cu med, cong]
+31.6 +19.5 49 +37 +45 очень
душно
1018.7 996.7
18 21.08 С 4 10 км {гроза} 9/9 600 м
[Sc]
+20.8 +15.6 72 +24 +24 комфорт 1024.5 1001.5 +32.0

 

Местоположение метеостанции Великий Березный (Закарпатская область, Украина): широта 48.90 долгота 22.47 высота над уровнем моря 195 м.

В архиве по умолчанию представлена погода в Великом Березном за последнюю неделю. Архивные данные за месяц целиком и за предыдущие месяцы, начиная с января 2011 года, Вы можете получить, выбрав интересующий диапазон дат из раскрывающегося списка и нажав кнопку "Ввод!".


*Определитесь, кто Вы:
робот инопланетянин человек

Внимание! Время в таблицах - всемирное. Для получения местного времени необходимо прибавить поправку, которая равна 2 ч.

Смотрите также архив погоды в соседних городах и на ближайших метеорологических станциях:

Погода в Перечине (Закарпатская область, Украина) (19 км)
Погода в Ужгороде (Закарпатская область, Украина) (33 км)
Погода в Каменице-над-Сирочью (Словакия) (35 км)
Погода в Турке (Львовская область, Украина) (48 км)
Погода в Плае (Черновицкая область, Украина) (57 км)
Погода в Захони (Венгрия) (60 км)
Погода в Мильхостове (Словакия) (60 км)
Погода в Леско (Польша) (64 км)
Погода в Стропкове (Словакия) (70 км)
Погода в Нижнем Студеном (Закарпатская область, Украина) (70 км)

Пояснения к столбцам:

Ветер - указаны скорость ветра в м/с - средняя за 10 мин, порывы в срок и между сроками (в фигурных скобках) и направление, откуда дует ветер: С - северный, СВ - северо-восточный, В - восточный, ЮВ - юго-восточный, Ю - южный, ЮЗ - юго-западный, З - западный, СЗ - северо-западный.
Видимость - горизонтальная дальность видимости в метрах или километрах. При видимости от 1 до 10 км при отсутствии осадков обычно наблюдается дымка, при ухудшении видимости до 1 км и менее - туман. В сухую погоду видимость может ухудшаться дымом, пылью или мглою.
Явления - указаны атмосферные явления, наблюдавшиеся в срок или в последний час перед сроком; фигурными скобками обозначены явления, наблюдавшиеся между сроками (за 1-3 часа до срока); квадратными скобками обозначены град или гололедные отложения с указанием их диаметра в мм.
Облачность - указаны через наклонную черту общая и нижняя облачность в баллах и высота нижней границы облаков в метрах; квадратными скобками обозначены формы облаков: Ci - перистые, Cs - перисто-слоистые, Cc - перисто-кучевые, Ac - высококучевые, As - высокослоистые, Sc - слоисто-кучевые, Ns - слоисто-дождевые, Cu - кучевые, Cb - кучево-дождевые. Подробнее классификацию облаков см. в Атласе облаков (PDF).
T - Температура воздуха - температура, измеренная на высоте 2 м над землей.
Td - Температура точки росы - температура, при понижении до которой содержащийся в воздухе водяной пар достигнет насыщения.
f - Относительная влажность воздуха - влажноcть воздуха, измеренная на высоте 2 м над землей.
Te - Эффективная температура - температура, которую ощущает одетый по сезону человек в тени. Характеристика душности погоды. При расчете учитывается влияние влажности воздуха и скорости ветра на теплоощущения человека.
Tes - Эффективная температура на солнце - температура, которую ощущает человек, с поправкой на солнечный нагрев. Характеристика знойности погоды. Зависит от высоты солнца над горизонтом, облачности и скорости ветра. Ночью, в пасмурную погоду, а также при ветре 12 м/с и более поправка равна нулю.
P - Атмосферное давление - приведенное к уровню моря атмосферное давление.
Po - Атмосферное давление - измеренное на уровне метеостанции атмосферное давление.
Tmin - Минимальная температура - минимум температуры воздуха на высоте 2 м над землей.
Tmax - Максимальная температура - максимум температуры воздуха на высоте 2 м над землей.
R - Количество осадков - Количество выпавших осадков за период времени, мм. При наведении курсора мыши на число - период времени, за который выпало указанное количество осадков.
R24 - Количество осадков - Количество выпавших осадков за 24 часа, мм.
S - Снежный покров - Высота снежного покрова, см. При наведении курсора мыши на число - состояние снежного покрова и степень покрытия местности в баллах.